Chezy-en-Orxois, France

11:38 PM CET on November 17, 2018 (GMT +0100)
Chezy-en-Orxois

Weather History for 07157 - May, 2004

Change the Weather History Date:

Saturday, May 29, 2004

  Actual Average Record
Temperature  
Mean Temperature 64 °F -  
Max Temperature 75 °F 71 °F - ()
Min Temperature 53 °F 54 °F - ()
Degree Days  
Heating Degree Days 1    
Growing Degree Days 14 (Base 50)    
Moisture  
Dew Point 42 °F    
Average Humidity 44    
Maximum Humidity 62    
Minimum Humidity 27    
Precipitation  
Precipitation 0.00 in - - ()
Sea Level Pressure  
Sea Level Pressure 30.19 in    
Wind  
Wind Speed 6 mph ()    
Max Wind Speed 10 mph    
Max Gust Speed 24 mph    
T = Trace of Precipitation, MM = Missing Value Source: Averaged Metar Reports

Daily Weather History Graph

Daily Weather History Graph

Search for Another Location

Airport or City:

Astronomy

May. 29, 2004 Rise Set
Actual Time 5:52 AM CEST 9:42 PM CEST
Civil Twilight 5:11 AM CEST 10:23 PM CEST
Nautical Twilight 4:15 AM CEST 11:20 PM CEST
Astronomical Twilight 2:49 AM CEST 12:48 AM CEST
Moon 3:44 PM CEST (5/29) 3:38 AM CEST (5/29)
Length of Visible Light 17h 12m
Length of Day
15h 50m
Waxing Gibbous, 71% of the Moon is Illuminated
May 29
Waxing Gibbous
Jun 3
Full
Jun 9
Last Quarter
Jun 17
New
Jun 25
First Quarter

Hourly Weather History & Observations

Time (CEST) Temp. Dew Point Humidity Pressure Visibility Wind Dir Wind Speed Gust Speed Precip Events Conditions
12:00 AM 59.0 °F 42.8 °F 55% 30.24 in - East 5.8 mph - N/A   Clear
12:30 AM 59.0 °F 41.0 °F 51% 30.24 in - East 6.9 mph - N/A   Clear
1:00 AM 59.0 °F 41.0 °F 51% 30.24 in - East 5.8 mph - N/A   Clear
1:30 AM 59.0 °F 41.0 °F 51% 30.24 in - ESE 4.6 mph - N/A   Clear
2:00 AM 59.0 °F 41.0 °F 51% 30.21 in - East 5.8 mph - N/A   Clear
2:30 AM 57.2 °F 41.0 °F 55% 30.21 in - ESE 5.8 mph - N/A   Clear
3:00 AM 57.2 °F 41.0 °F 55% 30.21 in - East 6.9 mph - N/A   Clear
3:30 AM 57.2 °F 41.0 °F 55% 30.21 in - East 5.8 mph - N/A   Clear
4:00 AM 55.4 °F 41.0 °F 58% 30.21 in - East 5.8 mph - N/A   Clear
4:30 AM 55.4 °F 41.0 °F 58% 30.21 in - ESE 6.9 mph - N/A   Clear
5:00 AM 55.4 °F 41.0 °F 58% 30.21 in - ESE 8.1 mph - N/A   Clear
5:30 AM 55.4 °F 41.0 °F 58% 30.21 in - ESE 8.1 mph - N/A   Clear
6:00 AM 53.6 °F 41.0 °F 62% 30.21 in - ESE 8.1 mph - N/A   Clear
6:30 AM 55.4 °F 41.0 °F 58% 30.21 in - ESE 8.1 mph - N/A   Clear
7:00 AM 55.4 °F 41.0 °F 58% 30.21 in - ESE 8.1 mph - N/A   Clear
7:30 AM 57.2 °F 41.0 °F 55% 30.21 in - ESE 8.1 mph - N/A   Clear
8:00 AM 57.2 °F 41.0 °F 55% 30.21 in - SE 8.1 mph - N/A   Clear
8:30 AM 57.2 °F 41.0 °F 55% 30.21 in - SE 8.1 mph - N/A   Clear
9:00 AM 59.0 °F 41.0 °F 51% 30.21 in - SE 6.9 mph - N/A   Clear
9:30 AM 60.8 °F 42.8 °F 52% 30.21 in - SE 6.9 mph - N/A   Clear
10:00 AM 62.6 °F 42.8 °F 48% 30.21 in - SSE 6.9 mph - N/A   Clear
10:30 AM 64.4 °F 44.6 °F 49% 30.24 in - SE 5.8 mph - N/A   Clear
11:00 AM 66.2 °F 44.6 °F 46% 30.21 in - SSE 5.8 mph - N/A   Clear
11:30 AM 68.0 °F 42.8 °F 40% 30.21 in - SSE 6.9 mph - N/A   Clear
12:00 PM 69.8 °F 39.2 °F 33% 30.21 in - SE 9.2 mph - N/A   Clear
12:30 PM 69.8 °F 37.4 °F 31% 30.21 in - Variable 9.2 mph - N/A   Clear
1:00 PM 71.6 °F 41.0 °F 33% 30.21 in - Variable 4.6 mph - N/A   Clear
1:30 PM 71.6 °F 39.2 °F 31% 30.21 in - South 6.9 mph - N/A   Clear
2:00 PM 73.4 °F 41.0 °F 31% 30.18 in - South 5.8 mph - N/A   Clear
2:30 PM 73.4 °F 37.4 °F 27% 30.18 in - Variable 5.8 mph - N/A   Clear
3:00 PM 73.4 °F 39.2 °F 29% 30.18 in - Variable 4.6 mph 16.1 mph N/A   Clear
3:30 PM 73.4 °F 39.2 °F 29% 30.15 in - SE 6.9 mph - N/A   Clear
4:00 PM 75.2 °F 39.2 °F 27% 30.15 in - Variable 4.6 mph - N/A   Clear
4:30 PM 75.2 °F 41.0 °F 29% 30.15 in - SSE 4.6 mph - N/A   Clear
5:00 PM 75.2 °F 41.0 °F 29% 30.15 in - Variable 6.9 mph 24.2 mph N/A   Clear
5:30 PM 75.2 °F 42.8 °F 31% 30.15 in - Variable 2.3 mph - N/A   Clear
6:00 PM 75.2 °F 41.0 °F 29% 30.15 in - South 5.8 mph - N/A   Clear
6:30 PM 75.2 °F 39.2 °F 27% 30.12 in - SW 4.6 mph - N/A   Clear
7:00 PM 75.2 °F 41.0 °F 29% 30.12 in - South 3.5 mph - N/A   Clear
7:30 PM 73.4 °F 44.6 °F 36% 30.12 in - WSW 5.8 mph - N/A   Clear
8:00 PM 71.6 °F 44.6 °F 38% 30.12 in - SE 9.2 mph - N/A   Clear
8:30 PM 71.6 °F 44.6 °F 38% 30.12 in - SSE 8.1 mph - N/A   Clear
9:00 PM 71.6 °F 46.4 °F 41% 30.12 in - SE 10.4 mph - N/A   Clear
9:30 PM 69.8 °F 46.4 °F 43% 30.12 in - SE 10.4 mph - N/A   Clear
10:00 PM 68.0 °F 46.4 °F 46% 30.15 in - SE 8.1 mph - N/A   Clear
10:30 PM 68.0 °F 46.4 °F 46% 30.15 in - SE 5.8 mph - N/A   Clear
11:00 PM 66.2 °F 44.6 °F 46% 30.15 in - SE 8.1 mph - N/A   Clear
11:30 PM 66.2 °F 44.6 °F 46% 30.15 in - SE 6.9 mph - N/A   Clear